User: anonymous   Login
Location: ?????
(31.8092°N, 35.2590°E)
Time: 23:08:25
(UTC+00:00)
Language:

Tiangong - Orbit

View from above orbital plane
View from above orbital plane
View from above satellite
View from above satellite

Ground track
Ground track

The orbit data is extracted from the following two-line orbital elements,

1 48274U 21035A   21293.55552709  .00012157  00000-0  14136-3 0  9995
2 48274  41.4699 238.4902 0002053 262.0679 261.0533 15.61549733 27306
Epoch (UTC): 20 October 2021 13:19:57
Eccentricity: 0.0002053
inclination: 41.4699°
perigee height: 382 km
apogee height: 384 km
right ascension of ascending node: 238.4902°
argument of perigee: 262.0679°
revolutions per day: 15.61549733
mean anomaly at epoch: 261.0533°
orbit number at epoch: 2730

The dashed part of the orbit path shows where the satellite is in the earth's shadow,  

DLR